Weather in Peseux

Switzerland     46°59′11″N   6°53′15″E
В апреле 2022 года жителям России запретили посещать сайт meteo.paraplan.net по решению Генеральной прокуратуры. Аудитория сайта уменьшилась в 10 раз. Владельцы сайта не видят смысла в поддержке погодного сервера в таких условиях. Сайт будет закрыт в октябре.
temp.,
°C
wind,
m/s
gust,
m/s
humid.,
%
clouds,
%
prec.,
mm/h
press.,
hPa
HPBL,
m
6 october, thu
thu623:00+13wsw35740 0.0 1027128
02:00+12wsw35830 0.0 1028124
05:00+11wnw11840 0.0 102957
08:00+10nne11880 0.0 103036
11:00+16e12700 0.0 1030430
14:00+19e126243 0.0 10291013
17:00+18nne237045 0.0 1028580
20:00+13n239016 0.0 1029101
7 october, fri
fri723:00+12nne229026 0.0 102976
02:00+11nne11937 0.0 102867
05:00+10nne019544 0.0 102755
08:00+10nw019751 0.0 102670
11:00+14ssw128434 0.0 1025325
14:00+18ssw246895 0.0 1022608
17:00+19sw236652 0.0 1021606
20:00+14nw2281100 0.0 102246
8 october, sat
sat823:00+14wnw1278100 0.0 102253
02:00+13w1181100 0.0 102168
05:00+12w1286100 0.0 102172
08:00+13nw1290100 0.6 1022131
11:00+15nnw128040 0.2 1023512
14:00+17nnw225731 0.3 1023962
17:00+16n22510 0.0 1022766
20:00+10n33730 0.0 1024108
9 october, sun
sun923:00+9nne35753 0.0 1024120
02:00+8ne48862 0.0 1023242
05:00+7ne369418 0.0 1023211
08:00+6ne229520 0.0 1023107
11:00+11se117710 0.0 1022289
14:00+15ssw11675 0.0 1019384
17:00+16s11712 0.0 1017234
20:00+12wnw11883 0.3 101953
10 october, mon
mon1023:00+12wsw118956 0.1 102077
02:00+12sw35928 0.1 1020152
05:00+12sw259214 0.0 1020149
08:00+11sw249323 0.0 1020118
11:00+15ssw2483100 0.1 1021342
14:00+18sw2368100 0.9 1020634
17:00+18sw117384 0.5 1020183
20:00+13n118541 0.8 102240